• In Belarus
  • List of Countries
  • For 7 days
  • Water Temperature
  • Satellite Maps
  • Weather Map
  • Weather Widgets
  • user-avatar
    Login

    Hourly Weather Cap-Haitien

    Today, 17 February, Saturday

    Time Temperature Precipitation Wind Pressure Humidity
    00:00 +22°C° 0 mm 5 mps 765 mmHg 94%
    01:00 +21°C° 0 mm 5 mps 765 mmHg 94%
    02:00 +20°C° 0 mm 5 mps 764 mmHg 94%
    03:00 +20°C° 0 mm 5 mps 764 mmHg 94%
    04:00 +20°C° 0 mm 5 mps 764 mmHg 94%
    05:00 +20°C° 0 mm 5 mps 765 mmHg 92%
    06:00 +20°C° 0 mm 5 mps 765 mmHg 89%
    07:00 +21°C° 0 mm 4 mps 765 mmHg 84%
    08:00 +23°C° 0 mm 5 mps 765 mmHg 73%
    09:00 +27°C° 0 mm 5 mps 765 mmHg 62%
    10:00 +29°C° 0 mm 6 mps 766 mmHg 50%
    11:00 +30°C° 0 mm 6 mps 765 mmHg 48%
    12:00 +33°C° 0 mm 7 mps 765 mmHg 46%
    13:00 +34°C° 0 mm 7 mps 764 mmHg 43%
    14:00 +33°C° 0 mm 7 mps 764 mmHg 48%
    15:00 +32°C° 0 mm 8 mps 764 mmHg 53%
    16:00 +31°C° 0 mm 8 mps 763 mmHg 59%
    17:00 +29°C° 0 mm 7 mps 764 mmHg 67%
    18:00 +27°C° 0 mm 7 mps 764 mmHg 75%
    19:00 +26°C° 0 mm 6 mps 764 mmHg 82%
    20:00 +24°C° 0 mm 6 mps 765 mmHg 85%
    21:00 +24°C° 0 mm 6 mps 765 mmHg 88%
    22:00 +23°C° 0 mm 6 mps 765 mmHg 91%
    23:00 +22°C° 0 mm 5 mps 765 mmHg 93%

    Tomorrow, 18 February, Sunday

    Time Temperature Precipitation Wind Pressure Humidity
    00:00 +22°C° 0 mm 5 mps 764 mmHg 94%
    01:00 +21°C° 0 mm 5 mps 764 mmHg 95%
    02:00 +21°C° 0 mm 5 mps 764 mmHg 95%
    03:00 +21°C° 0 mm 5 mps 764 mmHg 94%
    04:00 +20°C° 0 mm 5 mps 764 mmHg 94%
    05:00 +20°C° 0 mm 5 mps 764 mmHg 92%
    06:00 +20°C° 0 mm 5 mps 765 mmHg 89%
    07:00 +21°C° 0 mm 5 mps 765 mmHg 87%
    08:00 +23°C° 0 mm 5 mps 765 mmHg 73%
    09:00 +27°C° 0 mm 6 mps 765 mmHg 58%
    10:00 +30°C° 0 mm 7 mps 765 mmHg 44%
    11:00 +32°C° 0 mm 7 mps 765 mmHg 41%
    12:00 +33°C° 0 mm 7 mps 764 mmHg 38%
    13:00 +34°C° 0 mm 8 mps 764 mmHg 35%
    14:00 +33°C° 0 mm 8 mps 763 mmHg 42%
    15:00 +33°C° 0 mm 9 mps 763 mmHg 49%
    16:00 +32°C° 0 mm 9 mps 763 mmHg 56%
    17:00 +29°C° 0 mm 9 mps 763 mmHg 64%
    18:00 +27°C° 0 mm 8 mps 763 mmHg 72%
    19:00 +26°C° 0 mm 8 mps 764 mmHg 80%
    20:00 +24°C° 0 mm 7 mps 764 mmHg 84%
    21:00 +23°C° 0 mm 7 mps 764 mmHg 87%
    22:00 +23°C° 0 mm 6 mps 765 mmHg 91%
    23:00 +22°C° 0 mm 6 mps 765 mmHg 91%

    Day after tomorrow, 19 February, Monday

    Time Temperature Precipitation Wind Pressure Humidity
    00:00 +22°C° 0 mm 6 mps 764 mmHg 91%
    01:00 +21°C° 0 mm 6 mps 764 mmHg 91%
    02:00 +21°C° 0 mm 6 mps 764 mmHg 90%
    03:00 +20°C° 0 mm 6 mps 764 mmHg 89%
    04:00 +20°C° 0 mm 6 mps 764 mmHg 87%
    05:00 +20°C° 0 mm 6 mps 764 mmHg 84%
    06:00 +20°C° 0 mm 6 mps 765 mmHg 80%
    07:00 +21°C° 0 mm 6 mps 765 mmHg 76%
    08:00 +24°C° 0 mm 7 mps 765 mmHg 64%
    09:00 +27°C° 0 mm 7 mps 766 mmHg 52%
    10:00 +30°C° 0 mm 7 mps 766 mmHg 39%
    11:00 +32°C° 0 mm 8 mps 765 mmHg 40%
    12:00 +34°C° 0 mm 9 mps 765 mmHg 40%
    13:00 +36°C° 0 mm 10 mps 764 mmHg 41%
    14:00 +34°C° 0 mm 10 mps 764 mmHg 45%
    15:00 +33°C° 0 mm 11 mps 763 mmHg 49%
    16:00 +32°C° 0 mm 11 mps 763 mmHg 54%
    17:00 +29°C° 0 mm 10 mps 764 mmHg 60%
    18:00 +28°C° 0 mm 10 mps 764 mmHg 66%
    19:00 +26°C° 0 mm 9 mps 764 mmHg 72%
    20:00 +24°C° 0 mm 9 mps 765 mmHg 74%
    21:00 +24°C° 0 mm 9 mps 765 mmHg 77%
    22:00 +23°C° 0 mm 8 mps 765 mmHg 79%
    23:00 +22°C° 0 mm 8 mps 765 mmHg 80%

    20 February, Tuesday

    Time Temperature Precipitation Wind Pressure Humidity
    00:00 +22°C° 0 mm 8 mps 765 mmHg 81%
    01:00 +21°C° 0 mm 7 mps 765 mmHg 82%
    02:00 +21°C° 0 mm 7 mps 765 mmHg 83%
    03:00 +21°C° 0 mm 7 mps 765 mmHg 84%
    04:00 +21°C° 0 mm 7 mps 764 mmHg 85%
    05:00 +21°C° 0 mm 7 mps 765 mmHg 83%
    06:00 +21°C° 0 mm 7 mps 765 mmHg 81%
    07:00 +22°C° 0 mm 7 mps 766 mmHg 79%
    08:00 +26°C° 0 mm 8 mps 766 mmHg 68%
    09:00 +28°C° 0 mm 9 mps 766 mmHg 57%
    10:00 +32°C° 0 mm 11 mps 767 mmHg 46%
    11:00 +33°C° 0 mm 11 mps 766 mmHg 45%
    12:00 +34°C° 0 mm 11 mps 766 mmHg 43%
    13:00 +34°C° 0 mm 11 mps 765 mmHg 42%
    14:00 +33°C° 0 mm 12 mps 765 mmHg 46%
    15:00 +32°C° 0 mm 12 mps 764 mmHg 50%
    16:00 +31°C° 0 mm 12 mps 764 mmHg 54%
    17:00 +29°C° 0 mm 11 mps 765 mmHg 61%
    18:00 +27°C° 0 mm 11 mps 765 mmHg 67%
    19:00 +26°C° 0 mm 10 mps 766 mmHg 73%
    20:00 +24°C° 0 mm 9 mps 766 mmHg 75%
    21:00 +23°C° 0 mm 9 mps 766 mmHg 76%
    22:00 +23°C° 0 mm 8 mps 766 mmHg 78%
    23:00 +22°C° 0 mm 8 mps 766 mmHg 79%

    21 February, Wednesday

    Time Temperature Precipitation Wind Pressure Humidity
    00:00 +22°C° 0 mm 7 mps 766 mmHg 80%
    01:00 +21°C° 0 mm 7 mps 766 mmHg 82%
    02:00 +21°C° 0.1 mm 7 mps 765 mmHg 83%
    03:00 +21°C° 0.1 mm 7 mps 765 mmHg 84%
    04:00 +21°C° 0.1 mm 7 mps 765 mmHg 86%
    05:00 +21°C° 0 mm 7 mps 765 mmHg 85%
    06:00 +22°C° 0 mm 7 mps 766 mmHg 84%
    07:00 +22°C° 0 mm 7 mps 766 mmHg 84%
    08:00 +26°C° 0 mm 8 mps 766 mmHg 72%
    09:00 +29°C° 0 mm 9 mps 767 mmHg 59%
    10:00 +32°C° 0 mm 9 mps 767 mmHg 47%
    11:00 +33°C° 0 mm 10 mps 766 mmHg 44%
    12:00 +34°C° 0 mm 10 mps 766 mmHg 42%
    13:00 +36°C° 0 mm 11 mps 765 mmHg 39%
    14:00 +34°C° 0 mm 11 mps 765 mmHg 43%
    15:00 +33°C° 0 mm 12 mps 764 mmHg 47%
    16:00 +32°C° 0 mm 12 mps 764 mmHg 51%
    17:00 +31°C° 0 mm 11 mps 764 mmHg 57%
    18:00 +28°C° 0 mm 10 mps 765 mmHg 64%
    19:00 +26°C° 0 mm 9 mps 765 mmHg 70%
    20:00 +24°C° 0 mm 9 mps 766 mmHg 74%
    21:00 +24°C° 0 mm 8 mps 766 mmHg 78%
    22:00 +23°C° 0 mm 8 mps 766 mmHg 82%
    23:00 +22°C° 0 mm 7 mps 766 mmHg 84%

    22 February, Thursday

    Time Temperature Precipitation Wind Pressure Humidity
    00:00 +22°C° 0 mm 7 mps 766 mmHg 87%
    01:00 +21°C° 0 mm 7 mps 766 mmHg 90%
    02:00 +21°C° 0 mm 7 mps 766 mmHg 90%
    03:00 +20°C° 0 mm 7 mps 765 mmHg 91%
    04:00 +20°C° 0 mm 7 mps 765 mmHg 91%
    05:00 +20°C° 0 mm 7 mps 766 mmHg 87%
    06:00 +21°C° 0 mm 7 mps 766 mmHg 83%
    07:00 +21°C° 0 mm 7 mps 766 mmHg 79%
    08:00 +24°C° 0 mm 8 mps 766 mmHg 66%
    09:00 +28°C° 0 mm 9 mps 767 mmHg 54%
    10:00 +31°C° 0 mm 9 mps 767 mmHg 41%
    11:00 +32°C° 0 mm 10 mps 766 mmHg 40%
    12:00 +33°C° 0 mm 10 mps 765 mmHg 40%
    13:00 +34°C° 0 mm 10 mps 765 mmHg 39%
    14:00 +33°C° 0 mm 10 mps 764 mmHg 43%
    15:00 +32°C° 0 mm 11 mps 764 mmHg 48%
    16:00 +32°C° 0 mm 11 mps 763 mmHg 52%
    17:00 +29°C° 0 mm 10 mps 764 mmHg 60%
    18:00 +27°C° 0 mm 10 mps 764 mmHg 67%
    19:00 +24°C° 0 mm 9 mps 764 mmHg 75%
    20:00 +24°C° 0 mm 9 mps 765 mmHg 78%
    21:00 +23°C° 0 mm 8 mps 765 mmHg 81%
    22:00 +22°C° 0 mm 8 mps 765 mmHg 85%
    23:00 +22°C° 0 mm 7 mps 765 mmHg 85%
    Show more